Regional Weather Roundup
Issued by NWS

Home | Current Version | Previous Version | Graphics & Text | Print | Product List | Glossary On
Versions: 1 2 3 4 5 6 7 8 9 10 11 12 13 14 15 16 17 18 19 20 21 22 23 24 25 26 27 28 29 30 31 32 33 34 35 36 37 38 39 40 41 42 43 44 45 46 47 48 49
000
ASUS45 KBOI 041710
RWRID

IDAHO REGIONAL WEATHER ROUNDUP
NATIONAL WEATHER SERVICE BOISE ID
1100 AM MDT FRI SEP 04 2015

NOTE: "FAIR" INDICATES FEW OR NO CLOUDS BELOW 12000 FEET
WITH NO SIGNIFICANT WEATHER AND/OR OBSTRUCTIONS TO VISIBILITY

IDZ012-014-041800-
SOUTHWEST IDAHO


CITY           SKY/WX    TMP DP  RH WIND       PRES   REMARKS
BOISE          SUNNY     58  41  53 CALM      29.83F
CALDWELL       SUNNY     61  36  39 NW9       29.85S
MOUNTAIN HOME  PTSUNNY   58  39  48 W7        29.84F
$$

IDZ016-017-041800-
SOUTHCENTRAL IDAHO


CITY           SKY/WX    TMP DP  RH WIND       PRES   REMARKS
BURLEY         MOSUNNY   62  40  44 CALM      29.86F
JEROME         PTSUNNY   58  39  49 S5        29.87F
TWIN FALLS     MOSUNNY   66  37  34 NE6       29.87S
$$

IDZ019>023-041800-
SOUTHEAST IDAHO


CITY           SKY/WX    TMP DP  RH WIND       PRES   REMARKS
IDAHO FALLS    SUNNY     60  39  45 S9        29.90F
POCATELLO      MOSUNNY   63  38  39 VRB6      29.89F
REXBURG        SUNNY     61  38  42 SW7       29.91F
$$

IDZ006-010-011-018-031-032-041800-
CENTRAL IDAHO MOUNTAINS


CITY           SKY/WX    TMP DP  RH WIND       PRES   REMARKS
MCCALL         SUNNY     50  39  66 CALM      29.89F
HAILEY         PTSUNNY   61  41  48 NW8       29.92S
STANLEY          N/A     43  38  82 NW6       29.98S
SALMON         CLOUDY    46  43  87 CALM      29.98S
CHALLIS        LGT RAIN  45  42  89 CALM      29.98S FOG
$$

IDZ002-004-006-007-026-041800-
NORTHERN IDAHO


CITY           SKY/WX    TMP DP  RH WIND       PRES   REMARKS
LEWISTON       SUNNY     54  44  69 CALM      29.94F
LOWELL           N/A     54  47  77 S8        29.94F
COEUR D`ALENE  SUNNY     57  43  58 NE14G20   29.95F
MULLAN PASS    PTSUNNY   44  39  82 CALM      29.98S
$$


USA.gov is the U.S. government's official web portal to all federal, state and local government web resources and services.